Indianapolis, IN

4:54 PM EDT on July 28, 2016 (GMT -0400)
Indianapolis International

Weather History for KIND - July, 2013

Change the Weather History Date:

Tuesday, July 16, 2013

  Actual Average Record
Temperature  
Mean Temperature 83 °F 76 °F  
Max Temperature 93 °F 85 °F 98 °F (1988)
Min Temperature 73 °F 66 °F 49 °F (1945)
Degree Days  
Heating Degree Days 0 0  
Month to date heating degree days 0 0  
Since 1 June heating degree days 9 16  
Since 1 July heating degree days 0 0  
Cooling Degree Days 18 11  
Month to date cooling degree days 156 173  
Year to date cooling degree days 511 483  
Since 1 June cooling degree days 382 399  
Growing Degree Days 33 (Base 50)    
Moisture  
Dew Point 69 °F    
Average Humidity 67    
Maximum Humidity 84    
Minimum Humidity 49    
Precipitation  
Precipitation 0.01 in 0.15 in 2.32 in (1872)
Month to date precipitation 1.25 2.54  
Year to date precipitation 26.74 24.19  
Snow  
Snow 0.00 in 0.00 in 0.00 in ()
Month to date snowfall 0.0 0.0  
Since 1 June snowfall 0.0 0.0  
Since 1 July snowfall 0.0 0.0  
Snow Depth 0.00 in    
Sea Level Pressure  
Sea Level Pressure 30.28 in    
Wind  
Wind Speed 3 mph (NNE)    
Max Wind Speed 9 mph    
Max Gust Speed 14 mph    
Visibility 10 miles    
Events Rain    
T = Trace of Precipitation, MM = Missing Value Source: NWS Daily Summary

Daily Weather History Graph

Daily Weather History Graph

Search for Another Location

Airport or City:

Trip Planner

Search our weather history database for the weather conditions in past years. The results will help you decide how hot, cold, wet, or windy it might be!

Date:

Astronomy

Jul. 16, 2013 Rise Set
Actual Time 6:30 AM EDT 9:11 PM EDT
Civil Twilight 5:59 AM EDT 9:42 PM EDT
Nautical Twilight 5:19 AM EDT 10:22 PM EDT
Astronomical Twilight 4:35 AM EDT 11:06 PM EDT
Moon 2:52 PM EDT (7/16) 12:59 AM EDT (7/16)
Length of Visible Light 15h 43m
Length of Day
14h 40m
First Quarter, 56% of the Moon is Illuminated
Jul 16
First Quarter
Jul 22
Full
Jul 29
Last Quarter
Aug 6
New
Aug 14
First Quarter

Hourly Weather History & Observations

Time (EDT) Temp. Heat Index Dew Point Humidity Pressure Visibility Wind Dir Wind Speed Gust Speed Precip Events Conditions
12:54 AM 80.1 °F 82.3 °F 66.9 °F 64% 30.26 in 10.0 mi Calm Calm - N/A   Clear
1:54 AM 78.1 °F - 68.0 °F 71% 30.26 in 10.0 mi Calm Calm - N/A   Clear
2:54 AM 79.0 °F - 68.0 °F 69% 30.27 in 10.0 mi ESE 3.5 mph - N/A   Clear
3:54 AM 77.0 °F - 68.0 °F 74% 30.27 in 10.0 mi East 3.5 mph - N/A   Clear
4:54 AM 77.0 °F - 68.0 °F 74% 30.26 in 10.0 mi Calm Calm - N/A   Clear
5:54 AM 73.9 °F - 68.0 °F 82% 30.27 in 10.0 mi Calm Calm - N/A   Partly Cloudy
6:54 AM 75.0 °F - 69.1 °F 82% 30.29 in 10.0 mi Calm Calm - N/A   Partly Cloudy
7:54 AM 75.9 °F - 70.0 °F 82% 30.31 in 10.0 mi Calm Calm - N/A   Scattered Clouds
8:54 AM 81.0 °F 84.1 °F 69.1 °F 67% 30.33 in 10.0 mi SE 4.6 mph - N/A   Scattered Clouds
9:54 AM 84.0 °F 88.4 °F 70.0 °F 63% 30.33 in 10.0 mi Calm Calm - N/A   Partly Cloudy
10:54 AM 86.0 °F 90.7 °F 70.0 °F 59% 30.32 in 10.0 mi Calm Calm - N/A   Partly Cloudy
11:54 AM 86.0 °F 89.4 °F 68.0 °F 55% 30.32 in 10.0 mi Calm Calm - N/A   Scattered Clouds
12:54 PM 87.1 °F 91.3 °F 69.1 °F 55% 30.31 in 10.0 mi Calm Calm - N/A   Mostly Cloudy
1:54 PM 88.0 °F 92.1 °F 69.1 °F 53% 30.30 in 10.0 mi NW 4.6 mph - N/A   Mostly Cloudy
2:54 PM 91.0 °F 96.6 °F 70.0 °F 50% 30.28 in 10.0 mi WNW 5.8 mph - N/A   Mostly Cloudy
3:54 PM 89.1 °F 93.7 °F 69.1 °F 52% 30.28 in 10.0 mi WNW 8.1 mph - N/A   Mostly Cloudy
4:54 PM 91.0 °F 96.6 °F 70.0 °F 50% 30.27 in 10.0 mi NNE 5.8 mph - N/A   Mostly Cloudy
5:54 PM 89.1 °F 94.1 °F 70.0 °F 53% 30.26 in 10.0 mi North 8.1 mph - N/A   Mostly Cloudy
6:54 PM 87.1 °F 92.8 °F 71.1 °F 59% 30.26 in 10.0 mi North 5.8 mph - 0.01 in Rain Light Rain
7:54 PM 88.0 °F 92.9 °F 70.0 °F 55% 30.26 in 10.0 mi NNE 3.5 mph - 0.00 in   Mostly Cloudy
8:54 PM 86.0 °F 90.7 °F 70.0 °F 59% 30.25 in 10.0 mi NNE 5.8 mph - N/A   Mostly Cloudy
9:54 PM 84.9 °F 89.4 °F 70.0 °F 61% 30.26 in 10.0 mi NNE 5.8 mph - N/A   Mostly Cloudy
10:54 PM 84.0 °F 88.4 °F 70.0 °F 63% 30.28 in 10.0 mi NNE 4.6 mph - N/A   Mostly Cloudy
11:54 PM 82.9 °F 87.0 °F 70.0 °F 65% 30.27 in 10.0 mi NNE 4.6 mph - N/A   Mostly Cloudy